TimeEST,TemperatureF,Dew PointF,Humidity,Sea Level PressureIn,VisibilityMPH,Wind Direction,Wind SpeedMPH,Gust SpeedMPH,PrecipitationIn,Events,Conditions,WindDirDegrees,DateUTC
12:15 AM,48.2,46.4,93,29.98,10.0,Calm,Calm,-,N/A,,Clear,0,2013-02-28 05:15:00
12:55 AM,46.4,46.4,100,29.98,10.0,Calm,Calm,-,N/A,,Clear,0,2013-02-28 05:55:00
1:15 AM,46.4,46.4,100,29.98,10.0,Calm,Calm,-,N/A,,Clear,0,2013-02-28 06:15:00
1:35 AM,46.4,46.4,100,29.98,10.0,Calm,Calm,-,N/A,,Clear,0,2013-02-28 06:35:00
2:15 AM,46.4,44.6,93,29.97,10.0,South,3.5,-,N/A,,Clear,170,2013-02-28 07:15:00
2:35 AM,46.4,46.4,100,29.97,10.0,South,3.5,-,N/A,,Clear,190,2013-02-28 07:35:00
2:55 AM,46.4,46.4,100,29.97,10.0,Calm,Calm,-,N/A,,Clear,0,2013-02-28 07:55:00
3:15 AM,46.4,44.6,93,29.97,10.0,Calm,Calm,-,N/A,,Clear,0,2013-02-28 08:15:00
3:35 AM,44.6,44.6,100,29.96,10.0,Calm,Calm,-,N/A,,Clear,0,2013-02-28 08:35:00
3:55 AM,44.6,44.6,100,29.96,7.0,Calm,Calm,-,N/A,,Clear,0,2013-02-28 08:55:00
4:15 AM,44.6,44.6,100,29.96,7.0,Calm,Calm,-,N/A,,Clear,0,2013-02-28 09:15:00
4:55 AM,44.6,42.8,93,29.96,7.0,Calm,Calm,-,N/A,,Clear,0,2013-02-28 09:55:00
5:35 AM,42.8,42.8,100,29.97,7.0,Calm,Calm,-,N/A,,Clear,0,2013-02-28 10:35:00
5:55 AM,42.8,41.0,93,29.98,7.0,Calm,Calm,-,N/A,,Clear,0,2013-02-28 10:55:00
6:15 AM,42.8,42.8,100,29.98,7.0,Calm,Calm,-,N/A,,Clear,0,2013-02-28 11:15:00
6:35 AM,41.0,41.0,100,29.98,10.0,Calm,Calm,-,N/A,,Clear,0,2013-02-28 11:35:00
6:55 AM,41.0,41.0,100,29.99,5.0,Calm,Calm,-,N/A,,Clear,0,2013-02-28 11:55:00
7:15 AM,42.8,42.8,100,30.00,5.0,Calm,Calm,-,N/A,,Clear,0,2013-02-28 12:15:00
7:35 AM,42.8,42.8,100,30.00,10.0,Calm,Calm,-,N/A,,Clear,0,2013-02-28 12:35:00
7:55 AM,46.4,46.4,100,30.01,10.0,Calm,Calm,-,N/A,,Clear,0,2013-02-28 12:55:00
8:15 AM,51.8,50.0,94,30.02,10.0,SSE,3.5,-,N/A,,Clear,160,2013-02-28 13:15:00
8:35 AM,53.6,51.8,94,30.02,10.0,SSE,3.5,-,N/A,,Clear,160,2013-02-28 13:35:00
8:55 AM,55.4,51.8,88,30.02,10.0,Calm,Calm,-,N/A,,Scattered Clouds,0,2013-02-28 13:55:00
9:15 AM,59.0,51.8,77,30.03,10.0,Calm,Calm,-,N/A,,Mostly Cloudy,0,2013-02-28 14:15:00
9:35 AM,59.0,51.8,77,30.03,10.0,North,3.5,-,N/A,,Mostly Cloudy,360,2013-02-28 14:35:00
9:55 AM,60.8,51.8,72,30.03,10.0,North,5.8,-,N/A,,Mostly Cloudy,10,2013-02-28 14:55:00
10:15 AM,62.6,51.8,68,30.02,10.0,NNW,5.8,-,N/A,,Scattered Clouds,340,2013-02-28 15:15:00
10:35 AM,62.6,51.8,68,30.02,10.0,North,6.9,-,N/A,,Mostly Cloudy,10,2013-02-28 15:35:00
10:55 AM,64.4,51.8,64,30.01,10.0,Calm,Calm,-,N/A,,Mostly Cloudy,0,2013-02-28 15:55:00
11:15 AM,64.4,50.0,59,30.01,10.0,NW,5.8,-,N/A,,Mostly Cloudy,320,2013-02-28 16:15:00
11:35 AM,64.4,50.0,59,30.01,10.0,WNW,4.6,-,N/A,,Mostly Cloudy,300,2013-02-28 16:35:00
11:55 AM,68.0,46.4,46,30.00,10.0,West,5.8,-,N/A,,Mostly Cloudy,260,2013-02-28 16:55:00
12:15 PM,69.8,46.4,43,29.99,10.0,NW,5.8,16.1,N/A,,Mostly Cloudy,310,2013-02-28 17:15:00
12:55 PM,69.8,46.4,43,29.97,10.0,West,8.1,17.3,N/A,,Mostly Cloudy,260,2013-02-28 17:55:00
1:15 PM,71.6,46.4,41,29.96,10.0,West,8.1,-,N/A,,Scattered Clouds,270,2013-02-28 18:15:00
1:35 PM,69.8,46.4,43,29.96,10.0,West,6.9,-,N/A,,Scattered Clouds,270,2013-02-28 18:35:00
1:55 PM,69.8,44.6,40,29.95,10.0,WNW,6.9,-,N/A,,Clear,300,2013-02-28 18:55:00
2:15 PM,71.6,44.6,38,29.94,10.0,WNW,5.8,-,N/A,,Clear,290,2013-02-28 19:15:00
2:35 PM,71.6,44.6,38,29.94,10.0,WNW,3.5,16.1,N/A,,Clear,300,2013-02-28 19:35:00
2:55 PM,69.8,44.6,40,29.94,10.0,WNW,8.1,20.7,N/A,,Clear,290,2013-02-28 19:55:00
3:15 PM,69.8,44.6,40,29.93,10.0,West,9.2,-,N/A,,Scattered Clouds,260,2013-02-28 20:15:00
3:35 PM,69.8,46.4,43,29.93,10.0,West,8.1,-,N/A,,Scattered Clouds,280,2013-02-28 20:35:00
3:55 PM,69.8,46.4,43,29.93,10.0,NNW,9.2,18.4,N/A,,Scattered Clouds,330,2013-02-28 20:55:00
4:15 PM,68.0,46.4,46,29.93,10.0,West,6.9,-,N/A,,Scattered Clouds,270,2013-02-28 21:15:00
4:35 PM,68.0,48.2,49,29.93,10.0,WNW,6.9,-,N/A,,Scattered Clouds,290,2013-02-28 21:35:00
4:55 PM,66.2,48.2,52,29.93,10.0,West,6.9,-,N/A,,Scattered Clouds,280,2013-02-28 21:55:00
5:15 PM,64.4,50.0,59,29.94,10.0,WNW,5.8,-,N/A,,Scattered Clouds,300,2013-02-28 22:15:00
5:35 PM,64.4,44.6,49,29.95,10.0,WNW,6.9,-,N/A,,Scattered Clouds,290,2013-02-28 22:35:00
5:55 PM,62.6,44.6,52,29.95,10.0,West,6.9,-,N/A,,Clear,280,2013-02-28 22:55:00
6:15 PM,60.8,44.6,55,29.96,10.0,WSW,3.5,-,N/A,,Clear,240,2013-02-28 23:15:00
6:35 PM,59.0,44.6,59,29.96,10.0,WNW,3.5,-,N/A,,Clear,290,2013-02-28 23:35:00
6:55 PM,59.0,44.6,59,29.96,10.0,WSW,3.5,-,N/A,,Clear,250,2013-02-28 23:55:00
7:15 PM,57.2,44.6,63,29.97,10.0,Calm,Calm,-,N/A,,Clear,0,2013-03-01 00:15:00
7:35 PM,55.4,44.6,67,29.97,10.0,Calm,Calm,-,N/A,,Clear,0,2013-03-01 00:35:00
7:55 PM,55.4,44.6,67,29.96,10.0,Calm,Calm,-,N/A,,Clear,0,2013-03-01 00:55:00
8:15 PM,53.6,44.6,72,29.97,10.0,Calm,Calm,-,N/A,,Clear,0,2013-03-01 01:15:00
8:35 PM,53.6,44.6,72,29.97,10.0,Calm,Calm,-,N/A,,Clear,0,2013-03-01 01:35:00
9:15 PM,51.8,44.6,76,29.97,10.0,Calm,Calm,-,N/A,,Clear,0,2013-03-01 02:15:00
9:35 PM,51.8,44.6,76,29.97,10.0,Calm,Calm,-,N/A,,Clear,0,2013-03-01 02:35:00
10:15 PM,51.8,44.6,76,29.98,10.0,Calm,Calm,-,N/A,,Clear,0,2013-03-01 03:15:00
10:35 PM,51.8,44.6,76,29.98,10.0,Calm,Calm,-,N/A,,Clear,0,2013-03-01 03:35:00
10:55 PM,51.8,44.6,76,29.98,10.0,Calm,Calm,-,N/A,,Clear,0,2013-03-01 03:55:00
11:15 PM,51.8,44.6,76,29.98,10.0,Calm,Calm,-,N/A,,Clear,0,2013-03-01 04:15:00
11:35 PM,51.8,44.6,76,29.98,10.0,WSW,3.5,-,N/A,,Clear,240,2013-03-01 04:35:00
11:55 PM,51.8,44.6,76,29.98,10.0,Calm,Calm,-,N/A,,Clear,0,2013-03-01 04:55:00